DAE243 SGAS-SCEL

Flight info

Callsign DAE243
Flight time N/A
Altitude 34000
Route ARPAS ARPAS UZ124 SIS UL531 CBA UZ105 UMKAL UMKAL7C
Aircraft B752/M-SDE2E3FGHIJ3J4J7RWXY/LB1

Departure

Time 2026-04-16 23:47
Airport Silvio Pettirossi International Airport (SGAS)

Arrival

Time N/A
Airport Comodoro Arturo Merino Benítez International Airport (SCEL)
Time Latitude Longitude Altitude Speed Heading
2026-04-16 23:32 -25.24415 -57.51603 302 ft 0 kts 343°
2026-04-16 23:41 -25.24406 -57.51606 302 ft 3 kts 343°
2026-04-16 23:41 -25.24365 -57.51620 302 ft 7 kts 342°
2026-04-16 23:41 -25.24322 -57.51652 302 ft 7 kts 341°
2026-04-16 23:42 -25.24261 -57.51647 302 ft 10 kts
2026-04-16 23:42 -25.24167 -57.51631 302 ft 15 kts 10°
2026-04-16 23:42 -25.24060 -57.51612 302 ft 15 kts 351°
2026-04-16 23:42 -25.23963 -57.51671 302 ft 15 kts 327°
2026-04-16 23:43 -25.23886 -57.51674 302 ft 11 kts 12°
2026-04-16 23:43 -25.23800 -57.51651 302 ft 13 kts 13°
2026-04-16 23:43 -25.23697 -57.51626 302 ft 16 kts 12°
2026-04-16 23:43 -25.23577 -57.51597 302 ft 19 kts 13°
2026-04-16 23:44 -25.23439 -57.51564 302 ft 21 kts 12°
2026-04-16 23:44 -25.23291 -57.51528 302 ft 20 kts 12°
2026-04-16 23:44 -25.23159 -57.51497 302 ft 18 kts 13°
2026-04-16 23:44 -25.23044 -57.51468 302 ft 15 kts 13°
2026-04-16 23:45 -25.22933 -57.51441 302 ft 17 kts 12°
2026-04-16 23:45 -25.22796 -57.51409 302 ft 21 kts 12°
2026-04-16 23:45 -25.22638 -57.51373 302 ft 22 kts 11°
2026-04-16 23:45 -25.22540 -57.51445 302 ft 17 kts 281°
2026-04-16 23:46 -25.22553 -57.51559 302 ft 13 kts 216°
2026-04-16 23:46 -25.22645 -57.51588 302 ft 20 kts 191°
2026-04-16 23:46 -25.22931 -57.51660 302 ft 68 kts 192°
2026-04-16 23:46 -25.23596 -57.51818 303 ft 123 kts 193°
2026-04-16 23:47 -25.24611 -57.52065 327 ft 169 kts 193°
2026-04-16 23:47 -25.25818 -57.52361 790 ft 176 kts 193°
2026-04-16 23:47 -25.26965 -57.52649 1438 ft 174 kts 194°
2026-04-16 23:47 -25.28227 -57.52977 1799 ft 192 kts 195°
2026-04-16 23:48 -25.29571 -57.53333 2282 ft 202 kts 193°
2026-04-16 23:48 -25.30975 -57.53660 2446 ft 215 kts 193°
2026-04-16 23:48 -25.32559 -57.54025 2427 ft 238 kts 193°
2026-04-16 23:48 -25.34175 -57.54532 2628 ft 248 kts 208°
2026-04-16 23:49 -25.35520 -57.55790 2729 ft 263 kts 237°
2026-04-16 23:49 -25.36361 -57.57562 3219 ft 262 kts 245°
2026-04-16 23:49 -25.37206 -57.59367 3683 ft 265 kts 238°
2026-04-16 23:49 -25.38351 -57.60989 4144 ft 268 kts 227°
2026-04-16 23:50 -25.39729 -57.62401 4611 ft 270 kts 221°
2026-04-16 23:50 -25.41213 -57.63701 5072 ft 273 kts 218°
2026-04-16 23:50 -25.42765 -57.64949 5535 ft 275 kts 216°
2026-04-16 23:50 -25.44350 -57.66166 5989 ft 277 kts 216°
2026-04-16 23:51 -25.45943 -57.67361 6437 ft 280 kts 215°
2026-04-16 23:51 -25.47554 -57.68556 6877 ft 282 kts 215°
2026-04-16 23:51 -25.49210 -57.69776 7319 ft 284 kts 215°
2026-04-16 23:51 -25.50848 -57.70982 7749 ft 287 kts 215°
2026-04-16 23:52 -25.52533 -57.72221 8181 ft 289 kts 215°
2026-04-16 23:52 -25.54196 -57.73445 8603 ft 291 kts 215°
2026-04-16 23:52 -25.55830 -57.74649 9011 ft 294 kts 215°
2026-04-16 23:52 -25.57564 -57.75928 9438 ft 296 kts 215°
2026-04-16 23:53 -25.59281 -57.77197 9857 ft 298 kts 215°
2026-04-16 23:53 -25.61018 -57.78482 10233 ft 303 kts 215°
2026-04-16 23:53 -25.62778 -57.79788 10256 ft 320 kts 215°
2026-04-16 23:53 -25.64715 -57.81226 10275 ft 337 kts 214°